Simultaneous Nadir Overpasses (SNOs) Predictions

Prediction of SNOs between GOES-16 and NOAA-20 Satellite Orbit:

Table of predicted SNOs for the next 14.0 days since TLE Epoch: 2/27/2021
Index Date Time (GOES-16) GOES-16 Lat,Lon NOAA-20 Lat,Lon Distance(km) Time Diff (sec)
1 02/27/2021 06:17:06 -0.03, -75.20 -0.40, -73.41 202.52 80
2 02/28/2021 18:39:02 0.02, -75.20 -0.78, -78.72 401.10 80
3 03/01/2021 18:22:58 0.02, -75.20 0.26, -74.19 116.02 80
4 03/03/2021 06:44:45 -0.02, -75.21 0.94, -79.45 482.93 80
5 03/04/2021 06:23:20 -0.02, -75.22 -0.10, -74.92 34.07 80
6 03/06/2021 18:26:31 0.02, -75.23 -0.10, -75.68 51.91 80
7 03/07/2021 18:10:27 0.01, -75.24 0.94, -71.15 465.87 80
8 03/09/2021 06:32:14 0.00, -75.26 0.26, -76.42 131.76 80
9 03/10/2021 06:10:50 0.00, -75.27 -0.78, -71.89 386.04 80
10 03/11/2021 18:32:45 -0.00, -75.28 -0.44, -77.18 216.20 80
11 03/12/2021 18:16:40 -0.00, -75.30 0.59, -72.65 302.46 80
